Weather History for K1V4 - September, 2014

Change the Weather History Date:

Thursday, September 25, 2014

  Actual Average Record
Temperature  
Mean Temperature 56 °F 56 °F  
Max Temperature 69 °F 67 °F 88 °F (1920)
Min Temperature 42 °F 45 °F 25 °F (1950)
Degree Days  
Heating Degree Days 9 9  
Month to date heating degree days 218 132  
Since 1 July heating degree days 275 182  
Cooling Degree Days 0 0  
Month to date cooling degree days 26 33  
Year to date cooling degree days 245 431  
Growing Degree Days 4 (Base 50)    
Moisture  
Dew Point 48 °F    
Average Humidity 78    
Maximum Humidity 100    
Minimum Humidity 56    
Precipitation  
Precipitation 0.00 in 0.13 in 1.26 in (1965)
Month to date precipitation 1.42 2.76  
Year to date precipitation 28.86 28.52  
Sea Level Pressure  
Sea Level Pressure 30.41 in    
Wind  
Wind Speed - (North)    
Max Wind Speed -    
Max Gust Speed -    
T = Trace of Precipitation, MM = Missing Value Source: NWS Daily Summary

Daily Weather History Graph

Daily Weather History Graph

Search for Another Location

Airport or City:

Trip Planner

Search our weather history database for the weather conditions in past years. The results will help you decide how hot, cold, wet, or windy it might be!

Date:

Astronomy

Sep. 25, 2014 Rise Set
Actual Time 6:38 AM EDT 6:39 PM EDT
Civil Twilight 6:09 AM EDT 7:08 PM EDT
Nautical Twilight 5:35 AM EDT 7:42 PM EDT
Astronomical Twilight 5:01 AM EDT 8:17 PM EDT
Moon 7:57 AM EDT (9/25) 7:17 PM EDT (9/25)
Length of Visible Light 12h 59m
Length of Day
12h 01m
New Moon, 2% of the Moon is Illuminated
Sep 25
New Moon
Oct 1
First Quarter
Oct 8
Full
Oct 15
Last Quarter
Oct 23
New

Hourly Weather History & Observations

Time (EDT) Temp. Dew Point Humidity Pressure Visibility Wind Dir Wind Speed Gust Speed Precip Events Conditions
12:54 AM 46.0 °F 45.0 °F 96% 30.54 in - North - - N/A   Unknown
1:54 AM 45.0 °F 45.0 °F 100% 30.54 in - North - - N/A   Unknown
2:54 AM 43.0 °F 43.0 °F 100% 30.52 in - North - - N/A   Unknown
3:54 AM 43.0 °F 43.0 °F 100% 30.52 in - North - - N/A   Unknown
4:54 AM 43.0 °F 43.0 °F 100% 30.51 in - North - - N/A   Unknown
5:54 AM 43.0 °F 42.1 °F 97% 30.51 in - North - - N/A   Unknown
6:54 AM 42.1 °F 42.1 °F 100% 30.51 in - North - - N/A   Unknown
7:54 AM 43.0 °F 42.1 °F 97% 30.51 in - North - - N/A   Unknown
8:54 AM 44.1 °F 44.1 °F 100% 30.49 in - North - - N/A   Unknown
9:54 AM 46.9 °F 45.0 °F 93% 30.49 in - North - - N/A   Unknown
10:54 AM 50.0 °F 46.9 °F 89% 30.48 in - North - - N/A   Unknown
11:54 AM 55.9 °F 48.0 °F 75% 30.44 in - North - - N/A   Unknown
12:54 PM 61.0 °F 48.9 °F 64% 30.41 in - North - - N/A   Unknown
1:54 PM 64.0 °F 48.9 °F 58% 30.37 in - North - - N/A   Unknown
2:54 PM 66.9 °F 50.0 °F 54% 30.33 in - North - - N/A   Unknown
3:54 PM 66.9 °F 51.1 °F 57% 30.31 in - North - - N/A   Unknown
4:54 PM 66.9 °F 52.0 °F 59% 30.30 in - North - - N/A   Unknown
5:54 PM 64.9 °F 53.1 °F 65% 30.29 in - North - - N/A   Unknown
6:54 PM 61.0 °F 53.1 °F 75% 30.29 in - North - - N/A   Unknown
7:54 PM 57.0 °F 54.0 °F 89% 30.29 in - North - - 0.01 in   Unknown
8:54 PM 54.0 °F 52.0 °F 93% 30.28 in - North - - N/A   Unknown
9:54 PM 52.0 °F 50.0 °F 93% 30.28 in - North - - N/A   Unknown
10:54 PM 50.0 °F 48.9 °F 96% 30.28 in - North - - N/A   Unknown
11:54 PM 50.0 °F 48.9 °F 96% 30.27 in - North - - N/A   Unknown